GW4366 Weather Reports


time (UTC)temp
C
wind
direction
speed
KPH
gust
KPH
rain 1hr
cm
rain 24hr
cm
rain mn
cm
humidity
%
barometer
mb
20260510170004 26 152 3.2 9.7 0.00 0.00 0.00 69 991.7
20260510163002 25 335 3.2 6.4 0.00 0.00 0.00 67 992.0
20260510160005 25 245 3.2 11.3 0.00 0.00 0.00 74 991.9
20260510153008 23 297 1.6 6.4 0.00 0.00 0.00 81 991.9
20260510150010 21 200 0.0 6.4 0.00 0.00 0.00 88 991.6
20260510143008 18 233 0.0 0.0 0.00 0.00 0.00 95 991.6
20260510140007 17 233 0.0 0.0 0.00 0.00 0.00 96 991.3
20260510133001 17 233 0.0 0.0 0.00 0.00 0.00 96 991.4
20260510130002 16 233 0.0 0.0 0.00 0.00 0.00 96 991.5
20260510120004 15 233 0.0 4.8 0.00 0.00 0.00 95 990.9
20260510110003 15 239 0.0 0.0 0.00 0.00 0.00 95 989.7
20260510100003 15 239 0.0 0.0 0.00 0.00 0.00 94 989.1
20260510090004 15 239 0.0 0.0 0.00 0.00 0.00 93 988.8
20260510080003 16 268 0.0 0.0 0.00 0.00 0.00 93 988.6
20260510070001 16 184 0.0 1.6 0.00 0.00 0.00 92 988.2
20260510043003 18 194 8.0 17.7 0.00 0.00 0.00 90 988.3
20260510040007 18 191 1.6 9.7 0.00 0.00 0.00 88 988.3
20260510033007 18 240 1.6 6.4 0.00 0.00 0.00 88 988.6
20260510030011 18 228 1.6 4.8 0.00 0.00 0.00 88 988.1
20260510023000 18 170 0.0 0.0 0.00 0.00 0.00 87 987.8
20260510013001 20 229 0.0 0.0 0.00 0.00 0.00 83 986.7
20260510010003 20 228 0.0 0.0 0.00 0.00 0.00 80 986.1
20260510000002 22 223 0.0 4.8 0.00 0.00 0.00 75 985.6
20260509233001 23 253 0.0 0.0 0.00 0.00 0.00 74 985.6
20260509230012 24 220 0.0 0.0 0.00 0.00 0.00 70 985.5
20260509220006 25 228 0.0 3.2 0.00 0.00 0.00 64 985.2
20260509213003 26 208 0.0 8.0 0.00 0.00 0.00 63 985.1
20260509210006 26 287 0.0 3.2 0.00 0.00 0.00 58 985.1
20260509190005 26 92 1.6 12.9 0.00 0.00 0.00 62 985.7
20260509180002 26 209 1.6 8.0 0.00 0.00 0.00 64 986.2